QPF
0.00 0.00 0.00 0.00 0.00 0.00 0.00 0.00 0.00 0.00 0.00 0.00 0.00 0.00 0.00 0.00 0.00 0.00 0.00 0.00 0.00 0.00 0.00 0.00 0.00 0.00 0.00 0.00 0.00 0.00 0.00 0.00 0.00 0.00 0.00 0.00 0.00 0.00 0.00 0.00 0.00 0.00 0.00 0.00
0.00 0.00 0.00 0.00 0.00 0.00 0.00 0.00 0.00 0.00 0.00 0.00 0.00 0.00 0.00 0.00 0.00 0.00 0.00 0.00 0.00 0.00 0.00 0.00 0.00 0.00 0.00 0.00 0.00 0.00 0.00 0.00 0.00 0.00 0.00 0.00 0.00 0.00 0.00 0.00 0.00 0.00 0.01 0.05
0.00 0.00 0.00 0.00 0.00 0.00 0.00 0.00 0.00 0.00 0.00 0.00 0.00 0.00 0.00 0.00 0.00 0.00 0.00 0.00 0.00 0.00 0.00 0.00 0.00 0.00 0.00 0.00 0.00 0.00 0.00 0.00 0.00 0.00 0.00 0.00 0.00 0.00 0.00 0.00 0.00 0.00 0.01 0.03
0.00 0.00 0.00 0.00 0.00 0.00 0.00 0.00 0.00 0.00 0.00 0.00 0.00 0.00 0.00 0.00 0.00 0.00 0.00 0.00 0.00 0.00 0.00 0.00 0.00 0.00 0.00 0.00 0.00 0.00 0.00 0.00 0.00 0.00 0.00 0.00 0.00 0.00 0.00 0.00 0.00 0.00 0.00 0.00
0.00 0.00 0.00 0.00 0.00 0.00 0.00 0.00 0.00 0.00 0.00 0.00 0.00 0.00 0.00 0.00 0.00 0.00 0.00 0.00 0.00 0.00 0.00 0.00 0.00 0.00 0.00 0.00 0.00 0.00 0.00 0.00 0.00 0.00 0.00 0.00 0.00 0.00 0.00 0.00 0.00 0.00 0.00 0.00
0.00 0.00 0.00 0.00 0.00 0.00 0.00 0.00 0.00 0.00 0.00 0.00 0.00 0.00 0.00 0.00 0.00 0.00 0.00 0.00 0.00 0.00 0.00 0.00 0.00 0.00 0.00 0.00 0.00 0.00 0.00 0.00 0.00 0.00 0.00 0.00 0.00 0.00 0.00 0.00 0.00 0.00 0.00 0.00
0.00 0.00 0.00 0.00 0.00 0.00 0.00 0.00 0.00 0.00 0.00 0.00 0.00 0.00 0.00 0.00 0.00 0.00 0.00 0.00 0.00 0.00 0.00 0.00 0.00 0.00 0.00 0.00 0.00 0.00 0.00 0.00 0.00 0.00 0.00 0.00 0.00 0.00 0.00 0.00 0.00 0.00 0.00 0.00
0.00 0.00 0.00 0.00 0.00 0.00 0.00 0.00 0.00 0.00 0.00 0.00 0.00 0.00 0.00 0.00 0.00 0.00 0.00 0.00 0.00 0.00 0.00 0.00 0.00 0.00 0.00 0.00 0.00 0.00 0.00 0.00 0.00 0.00 0.00 0.00 0.00 0.00 0.00 0.00 0.00 0.00 0.00 0.00
0.00 0.00 0.00 0.00 0.00 0.00 0.00 0.00 0.00 0.00 0.00 0.00 0.00 0.00 0.00 0.00 0.00 0.00 0.00 0.00 0.00 0.00 0.00 0.00 0.00 0.00 0.00 0.00 0.00 0.00 0.00 0.00 0.00 0.00 0.00 0.00 0.00 0.00 0.00 0.00 0.00 0.00 0.00 0.00
0.00 0.00 0.00 0.00 0.00 0.00 0.00 0.00 0.00 0.00 0.00 0.00 0.00 0.00 0.00 0.00 0.00 0.00 0.00 0.00 0.00 0.00 0.00 0.00 0.00 0.00 0.00 0.00 0.00 0.00 0.00 0.00 0.00 0.00 0.00 0.00 0.00 0.00 0.00 0.00 0.00 0.00 0.00 0.00
0.00 0.00 0.00 0.00 0.00 0.00 0.00 0.00 0.00 0.00 0.00 0.00 0.00 0.00 0.00 0.00 0.00 0.00 0.00 0.00 0.00 0.00 0.00 0.00 0.00 0.00 0.00 0.00 0.00 0.00 0.00 0.00 0.00 0.00 0.00 0.00 0.00 0.00 0.00 0.00 0.00 0.00 0.00 0.00
0.00 0.00 0.00 0.00 0.00 0.00 0.00 0.00 0.00 0.00 0.00 0.00 0.00 0.00 0.00 0.00 0.00 0.00 0.00 0.00 0.00 0.00 0.00 0.00 0.00 0.00 0.00 0.01 0.00 0.00 0.00 0.00 0.00 0.00 0.00 0.00 0.00 0.00 0.00 0.00 0.00 0.00 0.00 0.00
0.00 0.00 0.00 0.00 0.00 0.00 0.00 0.00 0.00 0.00 0.00 0.00 0.00 0.00 0.00 0.00 0.00 0.00 0.00 0.00 0.00 0.00 0.00 0.00 0.00 0.02 0.05 0.03 0.00 0.00 0.00 0.00 0.00 0.00 0.00 0.00 0.00 0.00 0.00 0.00 0.00 0.00 0.00 0.00
0.00 0.00 0.00 0.00 0.00 0.00 0.00 0.00 0.00 0.00 0.00 0.00 0.00 0.00 0.00 0.00 0.00 0.00 0.00 0.00 0.00 0.00 0.00 0.00 0.05 0.06 0.01 0.00 0.00 0.00 0.00 0.00 0.00 0.00 0.00 0.00 0.00 0.00 0.00 0.00 0.00 0.00 0.00 0.00
0.00 0.00 0.00 0.00 0.00 0.00 0.00 0.00 0.00 0.00 0.00 0.00 0.00 0.00 0.00 0.00 0.00 0.00 0.00 0.00 0.00 0.00 0.02 0.08 0.06 0.01 0.01 0.00 0.00 0.00 0.00 0.00 0.00 0.00 0.00 0.00 0.00 0.00 0.00 0.00 0.00 0.00 0.00 0.00
0.00 0.00 0.00 0.00 0.00 0.00 0.00 0.00 0.00 0.00 0.00 0.00 0.00 0.00 0.00 0.00 0.00 0.00 0.00 0.00 0.00 0.01 0.05 0.05 0.02 0.01 0.01 0.01 0.01 0.00 0.00 0.00 0.00 0.00 0.00 0.00 0.00 0.00 0.00 0.00 0.00 0.00 0.00 0.00
0.00 0.00 0.00 0.00 0.00 0.00 0.00 0.00 0.00 0.00 0.00 0.00 0.00 0.00 0.00 0.00 0.00 0.00 0.00 0.02 0.04 0.07 0.07 0.05 0.03 0.03 0.04 0.02 0.00 0.00 0.00 0.00 0.00 0.00 0.00 0.00 0.00 0.00 0.00 0.00 0.00 0.00 0.00 0.00
0.00 0.00 0.00 0.01 0.03 0.02 0.00 0.00 0.00 0.00 0.00 0.00 0.00 0.00 0.00 0.00 0.00 0.00 0.00 0.01 0.04 0.06 0.05 0.04 0.04 0.04 0.03 0.01 0.00 0.00 0.00 0.00 0.00 0.00 0.00 0.00 0.00 0.00 0.00 0.00 0.00 0.00 0.00 0.00
0.00 0.00 0.00 0.01 0.02 0.00 0.00 0.00 0.00 0.00 0.00 0.00 0.00 0.00 0.00 0.01 0.00 0.00 0.00 0.01 0.00 0.01 0.01 0.00 0.00 0.00 0.00 0.00 0.00 0.00 0.00 0.00 0.00 0.00 0.00 0.00 0.00 0.00 0.00 0.00 0.00 0.00 0.00 0.00
0.00 0.00 0.00 0.00 0.00 0.00 0.00 0.00 0.00 0.00 0.00 0.00 0.00 0.00 0.00 0.00 0.01 0.00 0.00 0.00 0.00 0.00 0.00 0.00 0.00 0.00 0.00 0.00 0.00 0.00 0.00 0.00 0.00 0.00 0.00 0.00 0.00 0.00 0.00 0.00 0.00 0.00 0.00 0.00
0.02 0.00 0.00 0.00 0.00 0.00 0.00 0.00 0.00 0.01 0.01 0.00 0.00 0.00 0.00 0.01 0.02 0.00 0.00 0.00 0.00 0.00 0.00 0.00 0.00 0.00 0.00 0.00 0.00 0.00 0.00 0.00 0.00 0.00 0.00 0.00 0.00 0.00 0.00 0.00 0.00 0.00 0.00 0.00
0.02 0.01 0.00 0.00 0.00 0.00 0.00 0.00 0.00 0.00 0.00 0.00 0.00 0.00 0.00 0.00 0.00 0.00 0.00 0.00 0.00 0.00 0.00 0.00 0.00 0.00 0.00 0.00 0.00 0.00 0.00 0.00 0.00 0.00 0.00 0.00 0.00 0.00 0.00 0.00 0.00 0.00 0.00 0.00
0.03 0.00 0.00 0.00 0.00 0.00 0.00 0.00 0.00 0.00 0.00 0.00 0.00 0.00 0.00 0.00 0.00 0.00 0.00 0.00 0.00 0.00 0.00 0.00 0.00 0.00 0.00 0.00 0.00 0.00 0.00 0.00 0.00 0.00 0.00 0.00 0.00 0.00 0.00 0.00 0.00 0.00 0.00 0.00
0.00 0.00 0.00 0.00 0.00 0.00 0.00 0.00 0.00 0.00 0.00 0.00 0.00 0.00 0.00 0.00 0.00 0.00 0.00 0.00 0.00 0.00 0.00 0.00 0.00 0.00 0.00 0.00 0.00 0.00 0.00 0.00 0.00 0.00 0.00 0.00 0.00 0.00 0.00 0.00 0.00 0.00 0.00 0.00
0.00 0.00 0.00 0.00 0.00 0.00 0.00 0.00 0.00 0.00 0.00 0.00 0.00 0.00 0.00 0.00 0.00 0.00 0.00 0.00 0.00 0.00 0.00 0.00 0.00 0.00 0.00 0.00 0.00 0.00 0.00 0.00 0.00 0.00 0.00 0.00 0.00 0.00 0.00 0.00 0.00 0.00 0.00 0.00
0.00 0.00 0.00 0.00 0.00 0.00 0.00 0.00 0.00 0.00 0.00 0.00 0.00 0.00 0.00 0.00 0.00 0.00 0.00 0.00 0.00 0.00 0.00 0.00 0.00 0.00 0.00 0.00 0.00 0.00 0.00 0.00 0.00 0.00 0.00 0.00 0.00 0.00 0.00 0.00 0.00 0.00 0.00 0.00
MSLP
1006.83 1006.00 1004.13 1003.58 1003.44 1002.63 1002.37 1002.48 1001.69 1002.09 1002.82 1003.37 1003.14 1003.06 1002.88 1003.86 1004.03 1003.69 1004.05 1004.47 1004.85 1005.26 1005.88 1006.94 1007.65 1008.25 1009.08 1009.74 1010.50 1011.01 1011.45 1012.17 1012.40 1012.53 1012.48 1012.46 1012.35 1012.76 1012.96 1013.17 1014.04 1014.00 1013.82 1014.03
1006.07 1004.86 1004.48 1004.26 1003.77 1002.92 1002.30 1001.94 1001.37 1002.31 1003.23 1003.30 1003.12 1003.19 1003.22 1003.33 1004.00 1004.03 1004.15 1004.43 1004.74 1005.25 1005.84 1006.55 1007.51 1008.45 1009.02 1009.71 1010.13 1010.78 1011.28 1011.93 1012.36 1012.42 1012.62 1012.62 1012.80 1013.19 1014.15 1014.56 1014.38 1014.29 1014.35 1014.51
1004.72 1004.92 1004.33 1004.05 1003.85 1003.34 1002.69 1001.87 1002.11 1002.26 1002.97 1003.55 1003.01 1003.28 1003.23 1003.54 1003.86 1004.16 1004.12 1004.55 1004.77 1005.21 1005.41 1006.13 1007.12 1008.17 1008.93 1009.61 1010.19 1010.67 1011.29 1011.94 1012.21 1012.45 1012.83 1013.09 1013.53 1014.03 1013.83 1014.17 1014.49 1014.76 1014.73 1014.81
1004.64 1004.97 1004.85 1004.45 1003.96 1003.61 1002.84 1002.75 1002.60 1002.67 1002.99 1002.20 1002.70 1002.22 1002.83 1003.32 1003.43 1003.48 1003.78 1004.20 1005.06 1005.21 1005.51 1005.78 1006.44 1007.75 1008.60 1009.35 1010.14 1010.58 1011.17 1011.66 1012.03 1012.45 1012.55 1012.61 1012.52 1013.35 1013.98 1014.20 1014.85 1015.28 1015.38 1015.42
1004.43 1004.76 1005.76 1004.21 1003.60 1003.58 1002.70 1003.39 1002.88 1002.92 1002.84 1002.11 1002.98 1001.96 1001.71 1002.93 1002.99 1003.20 1003.59 1003.92 1004.34 1004.54 1004.85 1005.43 1006.22 1006.97 1008.14 1009.27 1009.91 1010.51 1011.09 1011.34 1011.81 1012.16 1012.47 1012.57 1013.14 1014.05 1014.10 1014.57 1015.16 1015.73 1015.93 1015.76
1003.92 1004.53 1005.10 1004.26 1004.05 1003.71 1003.51 1003.08 1003.35 1003.60 1003.03 1002.17 1001.88 1002.11 1000.47 1001.56 1002.26 1002.97 1003.48 1003.87 1004.27 1004.45 1004.82 1005.30 1006.26 1007.61 1008.38 1009.13 1009.91 1010.57 1010.99 1011.49 1011.94 1012.39 1012.80 1013.17 1013.80 1014.10 1014.28 1014.61 1014.88 1015.09 1015.36 1015.60
1003.72 1003.90 1004.26 1004.20 1004.00 1004.19 1003.30 1002.36 1002.21 1002.67 1002.41 1001.61 1002.17 1002.18 1000.64 1000.75 1001.83 1002.29 1002.74 1003.40 1003.88 1004.37 1004.65 1005.07 1006.10 1007.30 1008.39 1009.16 1009.91 1010.58 1011.12 1011.66 1012.24 1012.69 1013.28 1013.93 1014.33 1014.55 1014.70 1014.67 1014.83 1014.80 1014.99 1015.23
1002.50 1003.41 1003.51 1003.33 1002.90 1002.36 1002.37 1001.49 1000.64 1000.58 1000.80 1001.13 1001.87 1001.55 1001.11 1001.67 1001.88 1002.42 1002.47 1002.94 1003.35 1004.23 1004.28 1004.72 1005.61 1006.79 1008.06 1009.13 1010.08 1010.54 1011.20 1011.84 1012.46 1012.92 1013.56 1014.16 1014.48 1014.13 1014.43 1014.84 1014.96 1015.06 1015.13 1015.48
1001.26 1001.62 1002.86 1003.08 1002.78 1002.65 1002.24 1001.62 1001.12 1000.51 1000.74 1000.74 1001.93 1001.94 1002.03 1002.05 1002.51 1003.15 1003.25 1003.58 1003.90 1004.17 1004.28 1004.55 1005.23 1006.52 1007.73 1008.93 1009.89 1010.58 1011.21 1011.86 1012.56 1013.20 1013.73 1014.08 1014.14 1014.26 1014.80 1015.25 1015.32 1015.31 1015.63 1015.53
1001.17 1001.83 1002.52 1002.72 1002.92 1002.84 1002.19 1002.16 1002.38 1001.41 1000.90 1000.62 1001.02 1001.22 1000.99 1002.02 1002.37 1002.72 1002.82 1003.09 1003.41 1003.94 1004.30 1004.57 1005.05 1006.65 1007.81 1008.97 1009.95 1010.66 1011.31 1011.94 1012.59 1013.23 1013.72 1013.85 1014.52 1014.96 1015.45 1015.73 1015.78 1015.92 1016.00 1016.04
1001.33 1001.39 1002.27 1002.69 1002.03 1001.81 1001.94 1001.83 1001.88 1001.18 1001.15 1000.63 1000.67 1001.10 1000.99 1001.37 1001.90 1002.31 1002.78 1002.99 1003.64 1004.06 1004.19 1004.66 1005.27 1006.98 1008.05 1009.11 1009.82 1010.84 1011.47 1012.18 1012.77 1013.31 1013.76 1014.34 1014.91 1015.48 1015.83 1016.05 1016.25 1016.38 1016.31 1016.31
1001.43 1001.02 1001.74 1002.01 1002.05 1001.93 1001.87 1001.81 1002.15 1001.66 1001.86 1001.03 1000.78 1001.14 1002.04 1002.07 1002.68 1003.32 1003.52 1003.95 1004.15 1004.22 1004.37 1004.84 1005.99 1007.36 1008.32 1009.12 1009.99 1010.94 1011.52 1012.15 1012.88 1013.52 1014.14 1014.85 1015.45 1015.87 1016.28 1016.53 1016.61 1016.69 1016.68 1016.57
1001.39 1001.24 1001.05 1001.36 1001.87 1001.61 1001.38 1001.53 1001.90 1002.01 1001.80 1001.50 1001.26 1001.40 1002.60 1003.06 1003.51 1003.99 1004.40 1004.60 1004.86 1004.92 1005.11 1005.73 1006.63 1007.99 1009.03 1009.81 1010.36 1011.23 1011.75 1012.58 1013.14 1013.64 1014.38 1015.22 1015.74 1016.14 1016.56 1016.88 1016.97 1017.08 1016.96 1016.79
1001.59 1000.95 1000.54 1000.29 1000.44 1000.99 1000.92 1001.06 1001.40 1001.63 1001.82 1001.22 1001.10 1001.27 1002.52 1003.21 1003.88 1004.79 1005.25 1005.59 1005.72 1006.04 1006.42 1006.91 1008.03 1009.00 1009.65 1010.29 1010.73 1011.66 1012.39 1013.24 1013.59 1014.14 1014.74 1015.62 1016.31 1016.75 1016.95 1017.23 1017.25 1017.22 1017.18 1016.91
1001.88 1000.96 1000.41 1000.15 1000.27 1000.80 1000.80 1000.70 1000.92 1001.05 1000.99 1000.67 1000.69 1001.10 1001.50 1003.17 1004.65 1005.58 1006.16 1006.67 1007.09 1008.13 1008.54 1009.16 1009.54 1009.67 1010.82 1011.55 1012.06 1012.86 1013.60 1014.11 1014.57 1015.03 1015.58 1016.31 1016.77 1017.19 1017.27 1017.51 1017.45 1017.47 1017.43 1017.16
1002.06 1001.57 1000.75 1000.75 1000.76 1000.39 1000.05 1000.13 1000.33 1000.44 1000.48 1000.72 1000.94 1001.41 1002.82 1004.94 1005.89 1006.59 1007.34 1008.31 1009.73 1010.29 1010.60 1010.63 1010.89 1011.97 1012.93 1013.55 1013.98 1014.54 1014.98 1015.47 1015.72 1016.06 1016.47 1016.93 1017.23 1017.24 1017.43 1017.52 1017.43 1017.52 1017.47 1017.16
1001.75 1001.33 1000.85 1000.58 1000.54 1000.21 1000.01 999.82 999.89 1000.12 1000.46 1000.76 1000.98 1001.53 1004.37 1005.96 1007.19 1008.11 1009.42 1010.82 1012.16 1012.51 1013.05 1013.38 1013.97 1014.51 1014.76 1015.15 1015.65 1015.83 1016.29 1016.58 1016.63 1016.70 1017.04 1017.40 1017.60 1017.54 1017.78 1017.71 1017.67 1017.59 1017.45 1017.20
1001.61 1001.41 1001.08 1000.75 1000.97 1000.21 1000.55 1000.67 1000.31 1000.46 1000.94 1001.80 1002.30 1003.59 1005.40 1007.89 1009.22 1010.25 1011.54 1012.96 1013.92 1014.58 1015.12 1015.48 1015.50 1015.74 1016.16 1016.52 1016.93 1017.04 1017.21 1017.35 1017.51 1017.63 1017.87 1017.97 1018.17 1018.19 1018.07 1017.85 1017.68 1017.54 1017.30 1016.94
1001.87 1001.45 1001.64 1001.47 1001.29 1001.12 1001.05 1001.30 1001.06 1001.02 1001.97 1002.85 1003.27 1005.24 1007.63 1009.40 1010.45 1012.15 1013.16 1013.89 1015.09 1015.78 1016.64 1016.84 1017.09 1017.61 1017.88 1017.78 1018.06 1018.10 1018.12 1018.23 1018.37 1018.48 1018.60 1018.63 1018.73 1018.42 1018.17 1017.88 1017.76 1017.61 1017.20 1016.95
1002.35 1001.80 1001.71 1001.64 1001.44 1000.83 1000.35 1001.34 1001.82 1001.86 1001.68 1003.33 1004.33 1006.13 1007.61 1008.67 1008.98 1012.52 1013.84 1014.72 1015.56 1016.52 1017.37 1017.82 1018.19 1018.13 1018.43 1018.48 1018.75 1018.61 1018.83 1018.99 1019.29 1019.62 1019.57 1019.53 1019.33 1019.00 1018.56 1018.31 1018.04 1017.65 1017.45 1016.93
1002.12 1001.97 1001.77 1001.68 1001.70 1001.09 1001.83 1002.11 1002.44 1002.39 1003.12 1003.76 1004.88 1006.35 1007.59 1008.33 1008.99 1012.79 1014.31 1015.26 1016.12 1016.72 1017.24 1017.77 1018.18 1018.42 1019.13 1019.48 1019.68 1019.69 1019.85 1020.21 1020.60 1020.55 1020.33 1020.00 1019.71 1019.41 1018.95 1018.62 1018.44 1018.02 1017.48 1017.18
1001.72 1001.95 1001.93 1001.98 1002.31 1002.35 1002.98 1003.19 1002.92 1003.64 1004.10 1004.79 1005.75 1006.92 1008.37 1010.47 1011.98 1013.48 1014.89 1015.79 1016.60 1017.29 1017.89 1018.23 1018.53 1019.26 1020.09 1020.40 1020.29 1020.34 1020.66 1021.32 1021.44 1021.25 1020.62 1020.19 1019.89 1019.59 1019.14 1019.03 1018.51 1017.98 1017.65 1017.28
1002.18 1001.74 1001.94 1002.86 1002.91 1004.17 1004.44 1004.35 1004.58 1004.81 1005.02 1005.91 1006.94 1008.65 1009.93 1011.25 1012.67 1014.11 1015.34 1016.29 1017.24 1017.92 1018.43 1018.84 1019.21 1020.07 1020.73 1021.10 1021.27 1021.18 1021.82 1022.15 1021.95 1021.31 1020.75 1020.29 1019.99 1019.57 1019.27 1018.80 1018.37 1018.11 1017.93 1017.63
1002.97 1003.16 1002.59 1003.86 1004.79 1004.98 1005.45 1005.49 1005.61 1006.02 1006.67 1007.54 1008.72 1009.76 1010.93 1012.12 1013.77 1015.02 1016.19 1016.99 1017.84 1018.63 1019.17 1019.55 1019.92 1020.49 1021.11 1021.60 1021.94 1022.35 1022.69 1022.66 1022.22 1021.58 1020.99 1020.59 1020.36 1019.91 1019.25 1019.39 1019.05 1018.35 1018.12 1018.03
1003.30 1003.56 1003.58 1004.80 1005.64 1006.03 1006.43 1006.58 1007.03 1007.71 1008.56 1009.40 1010.42 1011.29 1012.31 1013.44 1014.71 1015.84 1016.91 1017.67 1018.41 1019.16 1019.78 1020.22 1020.56 1021.05 1021.70 1022.20 1022.56 1022.95 1023.14 1023.01 1022.45 1021.86 1021.42 1021.13 1020.60 1020.19 1019.73 1019.35 1019.29 1018.98 1018.46 1018.80
1004.17 1003.48 1003.65 1003.13 1004.62 1004.93 1007.14 1007.90 1008.71 1009.15 1009.76 1010.68 1011.49 1012.69 1013.76 1014.56 1015.53 1016.74 1017.56 1018.32 1018.92 1019.56 1020.18 1020.79 1021.32 1021.84 1022.31 1022.78 1023.12 1023.37 1023.43 1023.32 1022.91 1022.39 1021.87 1021.62 1021.15 1020.73 1020.21 1019.83 1019.17 1019.26 1019.15 1018.83
Thickness
5573 5578 5591 5613 5630 5656 5665 5665 5679 5694 5698 5695 5702 5712 5728 5733 5740 5750 5756 5761 5768 5774 5783 5784 5785 5788 5786 5787 5783 5782 5781 5779 5779 5777 5776 5776 5775 5774 5773 5769 5761 5759 5757 5753
5569 5577 5602 5618 5629 5641 5652 5659 5674 5682 5682 5689 5696 5697 5715 5727 5727 5737 5746 5753 5761 5766 5774 5776 5778 5778 5780 5779 5781 5778 5777 5774 5773 5773 5771 5771 5768 5765 5754 5752 5751 5749 5746 5742
5578 5584 5605 5611 5615 5619 5635 5651 5657 5667 5678 5687 5694 5685 5696 5712 5727 5733 5740 5747 5754 5759 5766 5770 5771 5770 5772 5771 5771 5771 5769 5766 5765 5765 5762 5759 5755 5749 5749 5746 5743 5737 5734 5730
5580 5584 5587 5599 5608 5623 5625 5652 5660 5663 5663 5665 5691 5670 5690 5702 5713 5727 5736 5743 5744 5750 5757 5765 5767 5762 5763 5764 5763 5763 5760 5758 5758 5756 5753 5751 5751 5740 5737 5735 5729 5723 5718 5715
5576 5579 5568 5598 5615 5628 5633 5644 5654 5661 5667 5682 5669 5684 5698 5702 5696 5715 5729 5737 5743 5752 5758 5758 5759 5762 5759 5755 5754 5753 5751 5751 5750 5748 5745 5743 5735 5726 5726 5721 5713 5707 5704 5703
5583 5594 5583 5601 5614 5624 5636 5646 5649 5654 5659 5652 5675 5679 5705 5696 5705 5713 5723 5730 5736 5744 5749 5754 5752 5749 5747 5749 5745 5743 5741 5739 5738 5735 5731 5726 5718 5715 5711 5707 5703 5701 5699 5695
5579 5585 5594 5602 5601 5611 5631 5641 5630 5628 5637 5649 5678 5668 5703 5720 5714 5718 5720 5726 5732 5737 5743 5745 5743 5739 5736 5735 5734 5732 5730 5726 5724 5721 5717 5710 5706 5703 5698 5698 5695 5694 5689 5686
5581 5573 5593 5610 5618 5626 5635 5653 5653 5633 5644 5662 5676 5661 5688 5707 5714 5718 5724 5727 5729 5729 5739 5742 5742 5736 5730 5726 5723 5723 5719 5714 5712 5709 5704 5700 5697 5699 5695 5690 5687 5684 5680 5675
5598 5600 5610 5614 5625 5631 5632 5636 5669 5665 5678 5674 5661 5673 5689 5698 5697 5701 5707 5711 5713 5720 5728 5733 5736 5732 5726 5719 5715 5712 5708 5705 5702 5699 5695 5692 5691 5688 5682 5678 5677 5675 5669 5666
5611 5593 5610 5616 5626 5632 5637 5653 5626 5651 5635 5642 5660 5664 5675 5677 5685 5696 5702 5707 5712 5716 5720 5725 5728 5721 5716 5710 5706 5703 5700 5696 5693 5688 5685 5685 5679 5675 5669 5666 5664 5660 5655 5651
5617 5613 5604 5613 5616 5623 5632 5635 5646 5663 5664 5652 5649 5658 5690 5688 5694 5695 5699 5706 5706 5708 5713 5716 5718 5710 5704 5700 5696 5690 5689 5685 5681 5678 5676 5673 5667 5661 5658 5654 5650 5646 5644 5640
5617 5619 5602 5609 5630 5641 5642 5640 5640 5632 5633 5664 5667 5665 5681 5687 5685 5685 5689 5691 5697 5703 5708 5709 5704 5697 5694 5690 5686 5682 5680 5676 5672 5669 5665 5658 5652 5649 5644 5641 5638 5634 5632 5629
5621 5615 5605 5611 5622 5636 5634 5644 5646 5649 5652 5644 5645 5660 5674 5673 5674 5677 5677 5683 5687 5692 5696 5695 5691 5682 5678 5677 5674 5671 5671 5666 5664 5661 5653 5647 5642 5638 5635 5630 5628 5624 5621 5618
5622 5624 5625 5619 5628 5637 5633 5642 5647 5646 5632 5648 5658 5666 5664 5667 5667 5665 5667 5672 5678 5679 5680 5680 5673 5669 5669 5667 5666 5663 5660 5655 5653 5648 5644 5636 5629 5625 5622 5619 5617 5613 5610 5608
5619 5618 5636 5644 5647 5641 5642 5646 5648 5646 5655 5655 5669 5669 5679 5671 5662 5659 5661 5663 5664 5655 5655 5654 5655 5659 5654 5651 5651 5649 5645 5640 5638 5634 5628 5621 5618 5614 5611 5607 5606 5602 5598 5596
5620 5613 5635 5629 5641 5649 5649 5657 5657 5659 5664 5665 5670 5668 5674 5659 5656 5653 5652 5646 5632 5631 5634 5640 5643 5636 5633 5631 5630 5628 5625 5622 5620 5617 5614 5610 5606 5605 5601 5598 5597 5592 5589 5588
5619 5622 5628 5625 5644 5650 5643 5655 5660 5663 5668 5668 5662 5677 5657 5645 5641 5639 5628 5617 5606 5610 5610 5615 5614 5612 5613 5613 5612 5612 5609 5606 5605 5605 5602 5597 5594 5593 5590 5588 5585 5582 5580 5578
5622 5625 5632 5630 5634 5624 5647 5659 5665 5661 5664 5661 5663 5659 5648 5627 5621 5618 5608 5592 5584 5584 5588 5591 5598 5599 5598 5598 5597 5597 5595 5592 5591 5590 5587 5584 5581 5579 5578 5578 5577 5575 5573 5572
5630 5630 5617 5614 5622 5636 5643 5646 5651 5652 5647 5652 5654 5640 5620 5609 5606 5592 5590 5587 5571 5570 5569 5573 5578 5576 5577 5582 5582 5581 5580 5578 5577 5575 5573 5571 5569 5569 5569 5569 5567 5566 5565 5562
5622 5633 5627 5625 5614 5618 5653 5655 5658 5658 5647 5648 5645 5629 5621 5622 5627 5591 5587 5582 5577 5570 5565 5565 5566 5570 5568 5568 5567 5571 5568 5565 5561 5556 5556 5555 5555 5556 5557 5557 5557 5556 5554 5552
5611 5619 5616 5624 5621 5643 5646 5652 5655 5633 5637 5648 5642 5633 5627 5628 5629 5591 5583 5579 5574 5571 5570 5568 5565 5563 5557 5555 5555 5555 5552 5546 5541 5542 5542 5543 5543 5544 5546 5545 5544 5544 5543 5539
5614 5609 5614 5627 5618 5618 5641 5641 5640 5641 5642 5640 5636 5632 5620 5602 5592 5585 5576 5571 5568 5564 5561 5560 5559 5553 5546 5543 5545 5544 5539 5531 5529 5529 5532 5534 5534 5534 5535 5533 5534 5534 5531 5528
5606 5627 5622 5626 5633 5620 5626 5631 5633 5634 5633 5630 5625 5611 5603 5594 5585 5577 5569 5564 5559 5555 5551 5550 5548 5540 5534 5531 5529 5531 5523 5518 5518 5521 5524 5525 5525 5526 5526 5526 5525 5522 5518 5514
5607 5611 5622 5613 5606 5611 5613 5620 5622 5622 5618 5614 5608 5602 5595 5586 5575 5567 5560 5555 5550 5544 5541 5540 5538 5533 5527 5523 5519 5513 5508 5507 5509 5512 5515 5515 5513 5514 5517 5511 5510 5511 5507 5503
5605 5605 5605 5592 5594 5599 5602 5607 5607 5604 5599 5594 5589 5584 5577 5570 5563 5557 5550 5546 5542 5536 5532 5530 5527 5522 5516 5511 5506 5501 5498 5497 5499 5502 5503 5501 5502 5502 5502 5501 5498 5496 5495 5488
5593 5601 5601 5616 5606 5615 5593 5593 5590 5587 5584 5580 5574 5566 5560 5557 5552 5545 5540 5536 5533 5529 5524 5519 5514 5509 5504 5499 5495 5490 5487 5486 5486 5488 5490 5487 5488 5487 5488 5486 5489 5484 5480 5479